Eelde, Netherlands

12:26 AM CET on November 25, 2017 (GMT +0100)
Eelde

Weather History for EHGG - February, 2014

Change the Weather History Date:

Thursday, February 20, 2014

  Actual Average Record
Temperature  
Mean Temperature 44 °F -  
Max Temperature 49 °F 44 °F 55 °F (1998)
Min Temperature 39 °F 32 °F 23 °F (2012)
Degree Days  
Heating Degree Days 21    
Moisture  
Dew Point 43 °F    
Average Humidity 91    
Maximum Humidity 100    
Minimum Humidity 71    
Precipitation  
Precipitation 0.04 in 0.07 in - ()
Sea Level Pressure  
Sea Level Pressure 29.70 in    
Wind  
Wind Speed 10 mph ()    
Max Wind Speed 20 mph    
Max Gust Speed -    
Visibility 4.6 miles    
Events Rain    
Averages and records for this station are not official NWS values.
T = Trace of Precipitation, MM = Missing Value Source: Averaged Metar Reports

Daily Weather History Graph

Daily Weather History Graph

Search for Another Location

Airport or City:

Trip Planner

Search our weather history database for the weather conditions in past years. The results will help you decide how hot, cold, wet, or windy it might be!

Date:

Astronomy

Feb. 20, 2014 Rise Set
Actual Time 7:41 AM CET 5:54 PM CET
Civil Twilight 7:05 AM CET 6:29 PM CET
Nautical Twilight 6:25 AM CET 7:10 PM CET
Astronomical Twilight 5:45 AM CET 7:50 PM CET
Moon No Moon Rise 9:26 AM CET (2/20)
Length of Visible Light 11h 24m
Length of Day
10h 13m
Waning Gibbous, 73% of the Moon is Illuminated
Feb 20
Waning Gibbous
Feb 22
Last Quarter
Mar 1
New
Mar 8
First Quarter
Mar 16
Full

Hourly Weather History & Observations

Time (CET) Temp. Windchill Dew Point Humidity Pressure Visibility Wind Dir Wind Speed Gust Speed Precip Events Conditions
12:00 AM 40 °F - 38 °F 90% 29.90 in 4 mi SW 6.7 mph - -   Mist
12:25 AM 42.8 °F 37.5 °F 41.0 °F 93% 29.89 in 4.3 mi SW 9.2 mph - N/A   Overcast
12:55 AM 42.8 °F 38.6 °F 41.0 °F 93% 29.89 in 3.7 mi SSW 6.9 mph - N/A   Overcast
1:00 AM 43 °F - 41 °F 91% 29.89 in 4 mi SSW 8.9 mph - -   Mist
1:25 AM 42.8 °F 38.0 °F 41.0 °F 93% 29.89 in 4.3 mi SSW 8.1 mph - N/A   Mostly Cloudy
1:55 AM 42.8 °F 38.0 °F 41.0 °F 93% 29.86 in 4.3 mi SW 8.1 mph - N/A   Overcast
2:00 AM 43 °F - 41 °F 92% 29.89 in 4 mi SSW 8.9 mph - -   Mist
2:25 AM 42.8 °F 38.0 °F 41.0 °F 93% 29.86 in 4.3 mi SSW 8.1 mph - N/A   Overcast
2:55 AM 44.6 °F 40.2 °F 42.8 °F 93% 29.86 in 4.3 mi South 8.1 mph - N/A   Overcast
3:00 AM 43 °F - 41 °F 90% 29.88 in 4 mi South 8.9 mph - -   Mist
3:25 AM 42.8 °F 38.0 °F 41.0 °F 93% 29.86 in 3.7 mi SSW 8.1 mph - N/A   Unknown
3:55 AM 42.8 °F 38.0 °F 41.0 °F 93% 29.86 in 4.3 mi SSW 8.1 mph - N/A   Unknown
4:00 AM 43 °F - 41 °F 92% 29.86 in 4 mi SSW 8.9 mph - -   Mist
4:25 AM 42.8 °F 38.0 °F 41.0 °F 93% 29.83 in 3.7 mi SSW 8.1 mph - N/A   Unknown
4:55 AM 42.8 °F 37.0 °F 41.0 °F 93% 29.83 in 3.7 mi SSW 10.4 mph - N/A   Partly Cloudy
5:00 AM 42 °F - 40 °F 89% 29.84 in 4 mi South 8.9 mph - -   Mist
5:25 AM 41.0 °F 35.8 °F 39.2 °F 93% 29.83 in 3.7 mi South 8.1 mph - N/A   Unknown
5:55 AM 41.0 °F 35.8 °F 39.2 °F 93% 29.80 in 3.1 mi South 8.1 mph - N/A   Mist
6:00 AM 40 °F - 39 °F 95% 29.83 in 3 mi South 8.9 mph - -   Mist
6:25 AM 41.0 °F 35.2 °F 41.0 °F 100% 29.80 in 3.1 mi South 9.2 mph - N/A   Overcast
6:55 AM 41.0 °F 35.2 °F 41.0 °F 100% 29.80 in 3.1 mi South 9.2 mph - N/A   Overcast
7:00 AM 42 °F - 40 °F 92% 29.81 in 3 mi South 8.9 mph - -   Mist
7:25 AM 42.8 °F 37.5 °F 41.0 °F 93% 29.77 in 3.1 mi South 9.2 mph - N/A   Overcast
7:55 AM 42.8 °F 37.5 °F 41.0 °F 93% 29.77 in 3.1 mi South 9.2 mph - N/A   Overcast
8:00 AM 43 °F - 41 °F 91% 29.79 in 3 mi South 8.9 mph - -   Mist
8:25 AM 42.8 °F 37.0 °F 41.0 °F 93% 29.77 in 3.7 mi South 10.4 mph - N/A   Overcast
8:55 AM 44.6 °F 38.8 °F 41.0 °F 87% 29.77 in 5.0 mi South 11.5 mph - N/A   Overcast
9:00 AM 44 °F - 42 °F 89% 29.78 in 6 mi South 11.2 mph - -   Mist
9:25 AM 44.6 °F 38.8 °F 42.8 °F 93% 29.74 in 6.2 mi South 11.5 mph - N/A   Overcast
9:55 AM 46.4 °F 40.7 °F 42.8 °F 87% 29.74 in 6.2 mi South 12.7 mph - N/A   Unknown
10:00 AM 46 °F - 42 °F 82% 29.75 in 9 mi South 13.4 mph - -   Scattered Clouds
10:25 AM 46.4 °F 40.1 °F 42.8 °F 87% 29.74 in 6.2 mi South 15.0 mph - N/A   Mostly Cloudy
10:55 AM 48.2 °F - 42.8 °F 82% 29.71 in 6.2 mi South 15.0 mph - N/A   Overcast
11:00 AM 47 °F - 42 °F 78% 29.73 in 10 mi South 15.7 mph - -   Overcast
11:25 AM 48.2 °F - 42.8 °F 82% 29.71 in 6.2 mi South 15.0 mph - N/A   Partly Cloudy
11:55 AM 50.0 °F - 42.8 °F 76% 29.68 in 6.2 mi South 16.1 mph - N/A   Overcast
12:00 PM 49 °F - 42 °F 71% 29.70 in 13 mi South 15.7 mph - - Rain Light Rain Showers
12:25 PM 48.2 °F - 42.8 °F 82% 29.68 in 6.2 mi South 16.1 mph - N/A   Overcast
12:55 PM 48.2 °F - 42.8 °F 82% 29.68 in 6.2 mi South 17.3 mph - N/A   Light Drizzle
1:00 PM 48 °F - 43 °F 77% 29.68 in 4 mi South 17.9 mph - - Rain Heavy Rain
1:25 PM 46.4 °F 39.0 °F 42.8 °F 87% 29.65 in 3.1 mi South 19.6 mph - N/A   Light Drizzle
1:55 PM 46.4 °F 39.5 °F 44.6 °F 93% 29.65 in 2.5 mi South 17.3 mph - N/A   Overcast
2:00 PM 46 °F - 45 °F 93% 29.66 in 3 mi South 15.7 mph - - Rain Rain
2:25 PM 46.4 °F 40.4 °F 44.6 °F 93% 29.65 in - South 13.8 mph - N/A   Overcast
2:55 PM 46.4 °F 40.4 °F 46.4 °F 100% 29.62 in 3.1 mi South 13.8 mph - N/A   Overcast
3:00 PM 47 °F - 45 °F 92% 29.64 in 4 mi South 13.4 mph - -   Mist
3:25 PM 46.4 °F 39.8 °F 46.4 °F 100% 29.62 in 3.7 mi South 16.1 mph - N/A   Overcast
3:55 PM 48.2 °F - 46.4 °F 93% 29.62 in - South 15.0 mph - N/A   Mostly Cloudy
4:00 PM 47 °F - 46 °F 94% 29.62 in 2 mi South 15.7 mph - -   Mist
4:25 PM 48.2 °F - 46.4 °F 93% 29.59 in - South 13.8 mph - N/A   Drizzle
4:55 PM 48.2 °F - 46.4 °F 93% 29.59 in 2.8 mi South 15.0 mph - N/A   Mostly Cloudy
5:00 PM 48 °F - 46 °F 92% 29.61 in 3 mi South 15.7 mph - - Rain Rain
5:25 PM 48.2 °F - 46.4 °F 93% 29.59 in - South 15.0 mph - N/A   Overcast
5:55 PM 48.2 °F - 46.4 °F 93% 29.59 in - South 13.8 mph - N/A   Drizzle
6:00 PM 48 °F - 47 °F 93% 29.60 in 2 mi South 15.7 mph - - Rain Drizzle
6:25 PM 48.2 °F - 46.4 °F 93% 29.59 in 3.7 mi South 15.0 mph - N/A   Drizzle
6:55 PM 48.2 °F - 46.4 °F 93% 29.56 in 6.2 mi South 15.0 mph - N/A   Overcast
7:00 PM 48 °F - 47 °F 94% 29.59 in 4 mi South 17.9 mph - - Rain Drizzle
7:25 PM 48.2 °F - 46.4 °F 93% 29.56 in - South 13.8 mph - N/A   Overcast
7:55 PM 48.2 °F - 46.4 °F 93% 29.56 in 3.1 mi South 12.7 mph - N/A   Drizzle
8:00 PM 48 °F - 47 °F 95% 29.57 in 3 mi South 13.4 mph - - Rain Heavy Drizzle
8:25 PM 48.2 °F - 46.4 °F 93% 29.56 in 6.2 mi South 15.0 mph - N/A Rain Light Rain
8:55 PM 48.2 °F - 46.4 °F 93% 29.53 in 6.2 mi South 17.3 mph - N/A Rain Light Rain
9:00 PM 49 °F - 47 °F 89% 29.56 in 7 mi South 15.7 mph - - Rain Light Rain
9:25 PM 48.2 °F - 46.4 °F 93% 29.53 in 6.2 mi South 15.0 mph - N/A   Heavy Drizzle
9:55 PM 48.2 °F - 46.4 °F 93% 29.53 in 6.2 mi South 16.1 mph - N/A Rain Light Rain
10:00 PM 49 °F - 47 °F 90% 29.55 in 4 mi South 15.7 mph - - Rain Heavy Drizzle
10:25 PM 48.2 °F - 46.4 °F 93% 29.53 in 5.6 mi South 16.1 mph - N/A   Drizzle
10:55 PM 48.2 °F - 46.4 °F 93% 29.53 in 3.7 mi South 16.1 mph - N/A   Drizzle
11:00 PM 48 °F - 47 °F 96% 29.54 in 6 mi South 13.4 mph - - Rain Drizzle
11:25 PM 48.2 °F - 46.4 °F 93% 29.53 in 6.2 mi SSW 16.1 mph - N/A   Drizzle
11:55 PM 48.2 °F - 46.4 °F 93% 29.53 in 6.2 mi SSW 16.1 mph - N/A   Mostly Cloudy